This is the latest recevied weather packets stored in our database for station/object WV5G-13. If no packets are shown the sender has not sent any weather packets the latest 10 day(s).
| Time | Temp. | Humidity | Pressure | Rain* | Wind** | Luminosity | Snow |
|---|---|---|---|---|---|---|---|
| 1777598103 | 13.89° C | 63% | 1013 hPa | 0 mm | - | 3 W/m² | - |
| 1777597797 | 13.89° C | 63% | 1013.2 hPa | 0 mm | - | 4 W/m² | - |
| 1777597492 | 13.89° C | 62% | 1013.2 hPa | 0 mm | - | 5 W/m² | - |
| 1777597188 | 14.44° C | 62% | 1013.1 hPa | 0 mm | - | 5 W/m² | - |
| 1777596883 | 14.44° C | 62% | 1013.1 hPa | 0 mm | - | 7 W/m² | - |
| 1777596580 | 14.44° C | 62% | 1012.9 hPa | 0 mm | - | 7 W/m² | - |
| 1777596277 | 14.44° C | 61% | 1013 hPa | 0 mm | - | 9 W/m² | - |
| 1777595974 | 14.44° C | 61% | 1013 hPa | 0 mm | - | 9 W/m² | - |
| 1777595669 | 14.44° C | 60% | 1012.8 hPa | 0 mm | - | 13 W/m² | - |
| 1777595364 | 14.44° C | 60% | 1012.8 hPa | 0 mm | - | 19 W/m² | - |
| 1777595062 | 15° C | 59% | 1013 hPa | 0 mm | - | 23 W/m² | - |
| 1777594758 | 15° C | 59% | 1013 hPa | 0 mm | - | 32 W/m² | - |
| 1777594455 | 15° C | 58% | 1012.8 hPa | 0 mm | - | 37 W/m² | - |
| 1777594150 | 15° C | 58% | 1012.8 hPa | 0 mm | - | 40 W/m² | - |
| 1777593846 | 15° C | 58% | 1012.8 hPa | 0 mm | - | 40 W/m² | - |
| 1777593543 | 15° C | 57% | 1012.5 hPa | 0 mm | - | 47 W/m² | - |
| 1777593236 | 15° C | 57% | 1012.8 hPa | 0 mm | - | 74 W/m² | - |
| 1777592936 | 15.56° C | 55% | 1012.5 hPa | 0 mm | - | 106 W/m² | - |
| 1777592632 | 15° C | 56% | 1012.6 hPa | 0 mm | - | 118 W/m² | - |
| 1777592329 | 15° C | 56% | 1012.2 hPa | 0 mm | - | 117 W/m² | - |
| 1777592024 | 15.56° C | 55% | 1012.5 hPa | 0 mm | - | 144 W/m² | - |
| 1777591721 | 15.56° C | 55% | 1012.3 hPa | 0 mm | - | 153 W/m² | - |
| 1777591416 | 15.56° C | 55% | 1012 hPa | 0 mm | - | 155 W/m² | - |
| 1777591112 | 15.56° C | 54% | 1012.2 hPa | 0 mm | - | 148 W/m² | - |
| 1777590808 | 15.56° C | 54% | 1012.2 hPa | 0 mm | - | 129 W/m² | - |
* Rain latest hour (hover to see other rain measurements)
** Current wind speed in m/s (hover to see current wind gust speed)